INTELSAT 29E (IS-29E) 1 41308U 16004A 21056.52954503 -.00000220 00000-0 00000-0 0 9999 2 41308 1.6399 92.1702 0013219 320.4449 13.9597 1.00633447 18774 ARIANE 5 R/B 1 41309U 16004B 21056.18978525 .00000271 00000-0 47431-3 0 9999 2 41309 0.5155 198.5553 7230981 337.4860 197.1189 2.32087192 42918